Location: Pebble Beach Sunset Acres
(33.0837°N, 96.4508°W)
Time: 03:03:30
(UTC+00:00)

Sich 1 - Pass Details

Date: 27 June 2022
Orbit: 593 x 623 km, 82.5° (Epoch: 09 August)

Event Time Altitude Azimuth Distance (km) Brightness Sun altitude
Rises 10:36:21 0° 185° (S) 2,866 6.1 -8.4°
Reaches altitude 10° 10:38:34 10° 185° (S) 1,960 5.3 -8.1°
Maximum altitude 10:42:55 90° 96° (E) 613 3.1 -7.3°
Drops below altitude 10° 10:47:15 10° 6° (N) 1,955 6.2 -6.6°
Sets 10:49:27 0° 7° (N) 2,857 7.1 -6.2°
